Retour au catalogue

CZ-4C DEB

ActifPO
NORAD 38295·DEBRIS·🇨🇳 China

Lancé Nov 4, 2010 depuis Taiyuan Satellite Launch Center

Loading…

Prochains Passages (prochaines 24 heures)

TLE

FraisSource: Space-Track

Époque: Sep 14, 2026, 09:29 UTC

1 38295U 10059E   26257.39535976  .00000224  00000-0  22769-3 0  9998
2 38295  98.6438  85.9082 0267261 315.8549 160.4542 13.71476856680709

Suivez CZ-4C DEB en temps réel avec AllMySat

Download on the App Store